Aurora, NE

12:19 PM CDT on July 26, 2017 (GMT -0500)
Aurora Municipal

Weather History for KAUH - April, 2013

Change the Weather History Date:

Tuesday, April 23, 2013

  Actual Average Record
Temperature  
Mean Temperature 32 °F -  
Max Temperature 36 °F 66 °F 93 °F (1989)
Min Temperature 26 °F 40 °F 26 °F (2013)
Degree Days  
Heating Degree Days 34    
Moisture  
Dew Point 24 °F    
Average Humidity 73    
Maximum Humidity 90    
Minimum Humidity 56    
Precipitation  
Precipitation 0.00 in - - ()
Sea Level Pressure  
Sea Level Pressure 30.23 in    
Wind  
Wind Speed 20 mph (North)    
Max Wind Speed 28 mph    
Max Gust Speed 37 mph    
Visibility 10 miles    
Events      
Averages and records for this station are not official NWS values.
T = Trace of Precipitation, MM = Missing Value Source: NWS Daily Summary

Daily Weather History Graph

Daily Weather History Graph

Search for Another Location

Airport or City:

Trip Planner

Search our weather history database for the weather conditions in past years. The results will help you decide how hot, cold, wet, or windy it might be!

Date:

Astronomy

Apr. 23, 2013 Rise Set
Actual Time 6:40 AM CDT 8:20 PM CDT
Civil Twilight 6:11 AM CDT 8:49 PM CDT
Nautical Twilight 5:36 AM CDT 9:24 PM CDT
Astronomical Twilight 4:58 AM CDT 10:02 PM CDT
Moon 6:16 PM CDT (4/23) 5:10 AM CDT (4/23)
Length of Visible Light 14h 37m
Length of Day
13h 39m
Waxing Gibbous, 94% of the Moon is Illuminated
Apr 23
Waxing Gibbous
Apr 25
Full
May 2
Last Quarter
May 9
New
May 17
First Quarter

Hourly Weather History & Observations

Time (CDT) Temp. Windchill Dew Point Humidity Pressure Visibility Wind Dir Wind Speed Gust Speed Precip Events Conditions
12:15 AM 32.0 °F 18.1 °F 28.8 °F 88% 30.25 in 10.0 mi North 27.6 mph 32.2 mph N/A   Overcast
12:35 AM 32.0 °F 18.6 °F 29.1 °F 89% 30.25 in 10.0 mi North 25.3 mph 29.9 mph N/A   Overcast
12:55 AM 31.8 °F 18.1 °F 28.2 °F 87% 30.25 in 10.0 mi North 26.5 mph 36.8 mph N/A   Overcast
1:15 AM 31.8 °F 18.4 °F 28.4 °F 87% 30.25 in 10.0 mi North 25.3 mph 28.8 mph N/A   Overcast
1:35 AM 31.8 °F 19.3 °F 28.4 °F 87% 30.23 in 10.0 mi North 21.9 mph 32.2 mph N/A   Overcast
1:55 AM 31.8 °F 19.3 °F 28.2 °F 87% 30.24 in 10.0 mi North 21.9 mph 31.1 mph N/A   Overcast
2:15 AM 31.6 °F 19.3 °F 27.7 °F 85% 30.28 in 10.0 mi North 20.7 mph 27.6 mph N/A   Overcast
2:35 AM 31.6 °F 19.0 °F 28.2 °F 87% 30.27 in 10.0 mi North 21.9 mph 26.5 mph N/A   Overcast
2:55 AM 31.8 °F 20.6 °F 28.2 °F 87% 30.27 in 10.0 mi North 17.3 mph - N/A   Overcast
3:15 AM 31.8 °F 19.9 °F 27.7 °F 85% 30.25 in 10.0 mi North 19.6 mph 23.0 mph N/A   Overcast
3:35 AM 31.8 °F 19.9 °F 28.0 °F 86% 30.25 in 10.0 mi North 19.6 mph 24.2 mph N/A   Overcast
3:55 AM 31.8 °F 19.9 °F 27.9 °F 85% 30.28 in 10.0 mi North 19.6 mph 26.5 mph N/A   Overcast
4:15 AM 31.8 °F 19.9 °F 27.7 °F 85% 30.24 in 10.0 mi North 19.6 mph 25.3 mph N/A   Overcast
4:35 AM 31.6 °F 19.0 °F 28.4 °F 88% 30.24 in 10.0 mi North 21.9 mph 32.2 mph N/A   Overcast
4:55 AM 31.1 °F 17.2 °F 26.4 °F 83% 30.22 in 10.0 mi North 26.5 mph 34.5 mph N/A   Overcast
5:15 AM 31.1 °F 18.0 °F 25.7 °F 80% 30.22 in 10.0 mi North 23.0 mph 29.9 mph N/A   Overcast
5:35 AM 30.9 °F 17.5 °F 26.1 °F 82% 30.25 in 10.0 mi North 24.2 mph 27.6 mph N/A   Overcast
5:55 AM 30.9 °F 18.1 °F 26.2 °F 83% 30.24 in 10.0 mi North 21.9 mph - N/A   Overcast
6:15 AM 30.7 °F 18.1 °F 26.4 °F 84% 30.24 in 10.0 mi North 20.7 mph 25.3 mph N/A   Overcast
6:35 AM 30.2 °F 16.5 °F 25.0 °F 81% 30.23 in 10.0 mi North 24.2 mph - N/A   Overcast
6:55 AM 30.2 °F 17.1 °F 24.1 °F 78% 30.23 in 10.0 mi North 21.9 mph 26.5 mph N/A   Overcast
7:15 AM 29.8 °F 16.6 °F 23.7 °F 78% 30.23 in 10.0 mi North 21.9 mph 28.8 mph N/A   Overcast
7:35 AM 29.7 °F 15.5 °F 23.0 °F 76% 30.22 in 10.0 mi North 25.3 mph 28.8 mph N/A   Overcast
7:55 AM 29.3 °F 16.6 °F 22.6 °F 76% 30.23 in 10.0 mi North 19.6 mph 28.8 mph N/A   Overcast
8:15 AM 29.5 °F 15.8 °F 22.1 °F 74% 30.25 in 10.0 mi North 23.0 mph 28.8 mph N/A   Overcast
8:35 AM 29.3 °F 16.2 °F 21.9 °F 74% 30.25 in 10.0 mi North 20.7 mph 29.9 mph N/A   Overcast
8:55 AM 29.5 °F 15.8 °F 21.9 °F 73% 30.26 in 10.0 mi North 23.0 mph 28.8 mph N/A   Overcast
9:15 AM 29.7 °F 17.1 °F 21.6 °F 72% 30.25 in 10.0 mi North 19.6 mph - N/A   Overcast
9:35 AM 30.0 °F 16.3 °F 20.8 °F 69% 30.25 in 10.0 mi North 24.2 mph 27.6 mph N/A   Overcast
9:55 AM 29.7 °F 16.4 °F 20.8 °F 70% 30.25 in 10.0 mi North 21.9 mph 25.3 mph N/A   Overcast
10:15 AM 30.0 °F 17.2 °F 20.3 °F 67% 30.25 in 10.0 mi North 20.7 mph 25.3 mph N/A   Overcast
10:35 AM 30.0 °F 17.9 °F 21.0 °F 69% 30.24 in 10.0 mi North 18.4 mph 26.5 mph N/A   Overcast
10:55 AM 30.2 °F 18.5 °F 21.6 °F 70% 30.25 in 10.0 mi North 17.3 mph - N/A   Scattered Clouds
11:15 AM 30.2 °F 17.1 °F 21.0 °F 69% 30.26 in 10.0 mi North 21.9 mph 25.3 mph N/A   Scattered Clouds
11:35 AM 31.1 °F 19.3 °F 22.1 °F 69% 30.25 in 10.0 mi North 18.4 mph 25.3 mph N/A   Scattered Clouds
11:55 AM 31.8 °F 19.0 °F 22.6 °F 69% 30.25 in 10.0 mi North 23.0 mph 26.5 mph N/A   Scattered Clouds
12:15 PM 31.6 °F 19.3 °F 22.3 °F 68% 30.25 in 10.0 mi North 20.7 mph 25.3 mph N/A   Mostly Cloudy
12:35 PM 32.2 °F 20.7 °F 23.2 °F 69% 30.25 in 10.0 mi North 18.4 mph 25.3 mph N/A   Mostly Cloudy
12:55 PM 32.9 °F 22.0 °F 24.6 °F 72% 30.24 in 10.0 mi North 17.3 mph 26.5 mph N/A   Mostly Cloudy
1:15 PM 34.7 °F 24.7 °F 26.6 °F 72% 30.23 in 10.0 mi North 16.1 mph 23.0 mph N/A   Mostly Cloudy
1:35 PM 34.0 °F 22.4 °F 23.9 °F 67% 30.23 in 10.0 mi North 20.7 mph 24.2 mph N/A   Scattered Clouds
1:55 PM 34.9 °F 24.2 °F 24.6 °F 66% 30.22 in 10.0 mi North 18.4 mph 25.3 mph N/A   Mostly Cloudy
2:15 PM 34.7 °F 24.0 °F 23.2 °F 63% 30.22 in 10.0 mi North 18.4 mph 27.6 mph N/A   Overcast
2:35 PM 34.9 °F 24.9 °F 22.5 °F 61% 30.21 in 10.0 mi North 16.1 mph 26.5 mph N/A   Overcast
2:55 PM 35.4 °F 25.3 °F 23.4 °F 62% 30.21 in 10.0 mi NNW 17.3 mph 21.9 mph N/A   Overcast
3:15 PM 34.9 °F 24.6 °F 21.7 °F 59% 30.20 in 10.0 mi North 17.3 mph 21.9 mph N/A   Overcast
3:35 PM 35.6 °F 25.9 °F 21.6 °F 57% 30.20 in 10.0 mi NNW 16.1 mph 21.9 mph N/A   Mostly Cloudy
3:55 PM 35.1 °F 24.8 °F 20.8 °F 56% 30.20 in 10.0 mi North 17.3 mph - N/A   Scattered Clouds
4:15 PM 35.2 °F 24.7 °F 21.2 °F 57% 30.20 in 10.0 mi North 18.4 mph 25.3 mph N/A   Clear
4:35 PM 35.2 °F 24.7 °F 22.1 °F 59% 30.19 in 10.0 mi NNW 18.4 mph 21.9 mph N/A   Scattered Clouds
4:55 PM 35.6 °F 25.9 °F 22.1 °F 58% 30.18 in 10.0 mi North 16.1 mph 23.0 mph N/A   Scattered Clouds
5:15 PM 36.1 °F 26.2 °F 21.7 °F 56% 30.18 in 10.0 mi North 17.3 mph 24.2 mph N/A   Scattered Clouds
5:35 PM 36.5 °F 27.0 °F 22.5 °F 57% 30.18 in 10.0 mi North 16.1 mph - N/A   Scattered Clouds
5:55 PM 36.0 °F 27.1 °F 21.9 °F 57% 30.18 in 10.0 mi North 13.8 mph 20.7 mph N/A   Clear
6:15 PM 35.4 °F 26.8 °F 21.6 °F 57% 30.18 in 10.0 mi North 12.7 mph - N/A   Clear
6:35 PM 36.0 °F 27.5 °F 22.1 °F 57% 30.19 in 10.0 mi North 12.7 mph - N/A   Clear
6:55 PM 36.5 °F 27.0 °F 22.6 °F 57% 30.19 in 10.0 mi NNW 16.1 mph - N/A   Scattered Clouds
7:15 PM 35.6 °F 25.9 °F 21.6 °F 57% 30.19 in 10.0 mi North 16.1 mph - N/A   Scattered Clouds
7:35 PM 34.9 °F 25.7 °F 22.5 °F 61% 30.19 in 10.0 mi North 13.8 mph - N/A   Clear
7:55 PM 34.0 °F 25.0 °F 22.8 °F 64% 30.19 in 10.0 mi North 12.7 mph - N/A   Clear
8:15 PM 33.4 °F 26.6 °F 23.2 °F 66% 30.19 in 10.0 mi North 8.1 mph - N/A   Clear
8:35 PM 32.2 °F 25.0 °F 23.7 °F 71% 30.19 in 10.0 mi North 8.1 mph - N/A   Clear
8:55 PM 32.0 °F 26.4 °F 24.3 °F 73% 30.20 in 10.0 mi North 5.8 mph - N/A   Clear
9:15 PM 31.5 °F 28.1 °F 25.5 °F 79% 30.20 in 10.0 mi North 3.5 mph - N/A   Clear
9:35 PM 31.1 °F - 26.2 °F 82% 30.20 in 10.0 mi Calm Calm - N/A   Clear
9:55 PM 30.7 °F - 25.7 °F 82% 30.20 in 10.0 mi Calm Calm - N/A   Clear
10:15 PM 29.8 °F - 25.3 °F 83% 30.21 in 10.0 mi Calm Calm - N/A   Clear
10:35 PM 29.5 °F - 25.0 °F 83% 30.21 in 10.0 mi Calm Calm - N/A   Clear
10:55 PM 27.5 °F - 25.0 °F 90% 30.21 in 10.0 mi Calm Calm - N/A   Clear
11:15 PM 27.9 °F 24.0 °F 25.0 °F 89% 30.21 in 10.0 mi West 3.5 mph - N/A   Clear
11:55 PM 26.4 °F 20.9 °F 23.4 °F 88% 30.21 in 10.0 mi West 4.6 mph - N/A   Clear